SCOUT A DEB, 3213

Orbit data source: Space-Track

SCOUT A DEB, 3213 is space debris in LEO originally from a launch on Sat, 02 Mar 1968 UTC launched from the Air Force Western Test Range (AFWTR). Debris objects in space refer to the collection of defunct objects orbiting the Earth. Examples of debris include non-operational satellites, rocket bodies, and fragments generated from explosions, collisions, or faulty payload assembly.

Loading next visibility...
Identifier
3213, 1968-012C
Orbit
LEO
Country
Flag of USUS
Related business
Manufacturer
Unknown
Mission
Spacecraft
Bus & Motor
Unknown
Mass
Unknown
Launch date (UTC)
1968-03-02 (59 years ago)
Launch vehicle
Unknown
Launch site
Air Force Western Test Range (AFWTR)
Object type
Payload
Rocket body
Debris
Shape & HBR
Unknown shape, 0.1 m
Radar Cross Section
Medium (>0.1 m² and <1 m²)

Expand to show TLE details & history
Last TLE update: 10 hours ago

TLE from 10 hours ago
0 SCOUT A DEB
1 03213U 68012C   26258.06959053  .00000377  00000-0  29774-3 0  9995
2 03213  90.1965 115.4574 0053801  69.4566  82.7646 13.89376248622926
Epoch: 2026-09-15T01:40Z
TLE epoch observation values (Epoch: 2026-09-15T01:40:12.621Z)
Latitude
27.20318°
Longitude
-83.53554°
Altitude
929.499 km
Speed
7.392 km/s
True Right ascension
19h 42m 13s
True Declination
27° 04' 01"
Sunlit
Object was in daylight at epoch
Visualization orbit readout
Latitude
Unknown
Longitude
Unknown
Altitude
Unknown
Speed
Unknown
Apparent Right ascension
Unknown
Apparent Declination
Unknown
Sunlit
N/A
Visualization observer readout
Local Sidereal Time
04:10:15
Azimuth
Unknown
Elevation
Unknown
Doppler factor
Unknown
Orbital elements
Apogee altitude
967.117 km
Perigee altitude
888.503 km
Semi-major axis
7,305.947 km
Eccentricity
0.00538
Inclination
90.1965°
RAAN
115.4574°
Arg. of periapsis
69.4566°
True anomaly
83.37671°
Mean anomaly
82.7646°
Eccentric anomaly
83.07061°
Mean motion
3.47559 °/min
Orbital period
103.58 mins
BSTAR
0.00029774
Loading maneuver chart data...
Computing Atmospheric mass density...
Loading historical data...
Loading historical data...
Loading historical data...
Loading historical data...
Loading historical data...
Loading historical data...
Loading historical data...

Documentation

Showing up to 5 results
|